Regional Weather Roundup
Issued by NWS

Home | Current Version | Previous Version | Graphics & Text | Print | Product List | Glossary On
Versions: 1 2 3 4 5 6 7 8 9 10 11 12 13 14 15 16 17 18 19 20 21 22 23 24 25 26 27 28 29 30 31 32 33 34 35 36 37 38 39 40 41 42 43 44 45 46 47 48 49 50
414
ASUS45 KABQ 261910
RWRNM
NEW MEXICO REGIONAL WEATHER ROUNDUP
NATIONAL WEATHER SERVICE ALBUQUERQUE NM
100 PM MDT FRI MAY 26 2017

NOTE: "FAIR" MEANS FEW OR NO CLOUDS BELOW 12,000 FEET AGL WITH NO
       SIGNIFICANT WEATHER OR OBSTRUCTIONS TO VISION.

      THIS PRODUCT IS RELEASED AS TWO VERSIONS.  ONE VERSION NEAR
      THE TOP OF THE HOUR CONTAINING PRELIMINARY DATA FROM ALBUQUERQUE
      AND OTHER STATIONS.  A FINAL VERSION WITH ADDITIONAL DATA IS
      ISSUED ABOUT 10 MINUTES AFTER THE HOUR.

NMZ501-503-504-510>518-262000-
NORTHWEST PLATEAU/NORTHCENTRAL MOUNTAINS

CITY           SKY/WX    TMP DP  RH WIND       PRES   REMARKS
FARMINGTON     FAIR      76  12   8 W14       29.94F
LOS ALAMOS     FAIR      70  14  11 SW10G18   30.09F
SANTA FE       FAIR      75  17  11 SW12G25   30.05F
TAOS           FAIR      70  16  12 SW14G26   30.08F
ANGEL FIRE     FAIR      63  15  16 S10G24    30.14F

$$
NMZ402-403-502-505>509-262000-
WESTCENTRAL MOUNTAINS/SOUTHWEST MOUNTAINS

CITY           SKY/WX    TMP DP  RH WIND       PRES   REMARKS
GALLUP         FAIR      73  18  12 SW23G40   30.06S
GRANTS         FAIR      76  15  10 SW15G24   30.06F
SILVER CITY    FAIR      80  23  12 W26G32    30.07F

$$
NMZ407-409-411-412-262000-
SOUTHERN DESERTS

CITY           SKY/WX    TMP DP  RH WIND       PRES   REMARKS
DEMING         FAIR      87  26  11 W22G33    29.99F
LAS CRUCES     FAIR      86  26  11 W17G29    30.03F
HOLLOMAN AFB   FAIR      85  23  10 SW13      30.02F
ALAMOGORDO     FAIR      86  28  12 S12G21    30.00F
T OR C         FAIR      86  18   8 W22       29.98F

$$
NMZ519>523-262000-
CENTRAL VALLEYS/CENTRAL HIGHLANDS

CITY           SKY/WX    TMP DP  RH WIND       PRES   REMARKS
ALBUQUERQUE    FAIR      78  14   9 SW8       30.00F
DOUBLE EAGLE   SUNNY     77  21  12 W10G22    30.03F
MORIARTY ARPT  FAIR      78  19  11 W15G24    30.07F
CLINES CORNERS FAIR      72  17  12 W20G39    30.10F
BELEN          FAIR      84  15   7 SW18G30   29.98F
SOCORRO        FAIR      86  16   7 SW14G26   29.97F

$$
NMZ524>526-539-540-262000-
SOUTHCENTRAL MOUNTAINS

CITY           SKY/WX    TMP DP  RH WIND       PRES   REMARKS
RUIDOSO        FAIR      77  16  10 SW22G31   30.12F

$$
NMZ527>531-262000-
NORTHEAST HIGHLANDS/NORTHEAST PLAINS

CITY           SKY/WX    TMP DP  RH WIND       PRES   REMARKS
LAS VEGAS      FAIR      76  11   8 SW21G29   30.04F
RATON          FAIR      75  29  18 S14G28    29.99F
CLAYTON        FAIR      73  48  41 S10G20    29.99F

$$
NMZ532>537-262000-
EASTCENTRAL PLAINS

CITY           SKY/WX    TMP DP  RH WIND       PRES   REMARKS
SANTA ROSA     FAIR      84  19   9 SW20G26   29.95F
TUCUMCARI      FAIR      82  39  21 VRB3      29.91F
CANNON AFB     FAIR      85  20   9 SW9G17    29.96F
CLOVIS AIRPORT FAIR      82  34  17 S13       29.95F

$$
NMZ028-029-538-262000-
SOUTHEAST PLAINS

CITY           SKY/WX    TMP DP  RH WIND       PRES   REMARKS
ROSWELL        FAIR      91  21   8 SE10      29.91F
ARTESIA        FAIR      90  27  10 VRB5G14   29.91F
CARLSBAD       FAIR      92  27   9 SW17G30   29.92F
HOBBS          SUNNY     90  21   8 SW7       29.97F


$$




USA.gov is the U.S. government's official web portal to all federal, state and local government web resources and services.